Overview Statistics Trail Chart Weather Telemetry Raw packets
 

This is the latest recevied weather packets stored in our database for station/object VE3TEJ. If no packets are shown the sender has not sent any weather packets the latest 10 day(s).

<< 107 108 109 110 111 112 113 >>
Time Temp. Humidity Pressure Rain* Wind** Luminosity Snow
1787946755 22.78° C 49% 1026.3 hPa 0 mm - - -
1787946457 22.22° C 48% 1026.2 hPa 0 mm - - -
1787946408 22.78° C 47% 1026.2 hPa 0 mm - - -
1787946156 22.78° C 48% 1026.4 hPa 0 mm - - -
1787945856 22.78° C 46% 1026.2 hPa 0 mm - - -
1787945556 22.78° C 46% 1026.2 hPa 0 mm - - -
1787945508 22.78° C 45% 1026.4 hPa 0 mm - - -
1787945256 22.78° C 43% 1026.3 hPa 0 mm - - -
1787944955 22.78° C 43% 1026.4 hPa 0 mm - - -
1787944655 22.78° C 48% 1026.3 hPa 0 mm - - -
1787944606 22.78° C 47% 1026.4 hPa 0 mm - - -
1787944355 22.78° C 48% 1026.5 hPa 0 mm - - -
1787944057 22.78° C 47% 1026.4 hPa 0 mm - - -
1787943756 22.78° C 49% 1026.4 hPa 0 mm - - -
1787943708 22.78° C 49% 1026.4 hPa 0 mm - - -
1787943456 22.78° C 48% 1026.5 hPa 0 mm - - -
1787943156 22.78° C 51% 1026.5 hPa 0 mm - - -
1787942855 22.78° C 48% 1026.5 hPa 0 mm - - -
1787942807 22.78° C 46% 1026.4 hPa 0 mm - - -
1787942555 22.78° C 49% 1026.6 hPa 0 mm - - -
1787942257 22.78° C 50% 1026.4 hPa 0 mm - - -
1787941956 22.78° C 51% 1026.7 hPa 0 mm - - -
1787941907 22.78° C 50% 1026.5 hPa 0 mm - - -
1787941655 22.78° C 51% 1026.8 hPa 0 mm - - -
1787941355 22.22° C 52% 1026.5 hPa 0 mm - - -

* Rain latest hour (hover to see other rain measurements)
** Current wind speed in m/s (hover to see current wind gust speed)